[[{"header":{"parameterUnit":"m.s-1","parameterCategory":1,"la1":30.2991,"la2":30.254,"lo1":-89.0895,"lo2":-89.0444,"dy":0.0017,"dx":0.0017,"nx":28,"ny":28,"refTime":"2024-05-23T21:00:00:Z","depth":0,"parameterNumber":2,"parameterNumberName":"U-component_of_WINDS"},"data":[0,0,0,0,0,0,0,0,0,0,0,0,0,0,0,0,0,0,0,0,0,0,0,0,0,0,0,0,0,0,0,0,0,0,0,0,0,0,0,0,0,0,0,0,0,0,0,0,0,0,0,0,0,0,0,0,0,0,-0.1009,-0.1008,0,-0.0953,-0.0952,-0.0952,-0.0974,-0.0975,-0.0976,-0.0978,-0.0918,-0.0915,-0.0912,0,0,0,0,0,0,0,0,0,0,0,0,0,-0.1134,-0.1131,-0.1009,-0.1008,-0.1007,-0.0953,-0.0952,-0.0952,-0.0973,-0.0975,-0.0977,-0.0978,-0.0919,-0.0915,-0.0912,0,0,0,0,0,0,0,0,0,0,0,0,0,-0.1079,-0.113,-0.1009,-0.1012,-0.1012,-0.0953,-0.0952,-0.0951,-0.0973,-0.0975,-0.0977,-0.0979,-0.092,-0.0916,-0.0911,-0.0846,0,0,-0.0899,-0.0897,0,0,0,0,0,0,0,0,-0.1082,-0.1074,-0.1012,-0.1012,-0.1011,-0.0972,-0.0974,-0.0916,-0.0973,-0.0988,-0.0978,-0.098,-0.0934,-0.0929,-0.0914,-0.0843,-0.0841,-0.0898,-0.0896,-0.0894,-0.0893,0,0,0,0,0,0,0,-0.1086,-0.1077,-0.0987,-0.1011,-0.1011,-0.1016,-0.101,-0.0963,-0.095,-0.0986,-0.0988,-0.0981,-0.0934,-0.0918,-0.0913,-0.084,-0.0898,-0.0895,-0.0892,-0.089,-0.0714,-0.0712,0,0,0,0,0,0,-0.109,-0.108,-0.0988,-0.0985,-0.1052,-0.1012,-0.1006,-0.0983,-0.0951,-0.0948,-0.098,-0.0982,-0.0924,-0.0918,-0.0911,-0.0832,-0.0894,-0.089,-0.0887,-0.0716,-0.0713,-0.0711,0,0,0,0,0,0,-0.1092,-0.1081,-0.0991,-0.1033,-0.1022,-0.1008,-0.0982,-0.0981,-0.0964,-0.0946,-0.0943,-0.0965,-0.0925,-0.0917,-0.0862,-0.0831,-0.0888,-0.0884,-0.0719,-0.0715,-0.0712,-0.0675,0,0,0,0,0,0,-0.1096,-0.1082,-0.1057,-0.1032,-0.1019,-0.0943,-0.098,-0.0978,-0.0957,-0.0961,-0.0932,-0.0929,-0.0926,-0.0869,-0.0858,-0.0826,-0.0881,-0.0721,-0.0717,-0.0713,-0.0679,-0.0671,-0.0664,0,0,0,0,0,-0.11,-0.1048,-0.1056,-0.1045,-0.0988,-0.0941,-0.0934,-0.0933,-0.0955,-0.0929,-0.0918,-0.093,-0.0836,-0.0863,-0.0851,-0.0817,-0.0723,-0.0718,-0.0714,-0.0682,-0.0672,-0.0664,0,0,0,0,0,0,-0.1068,-0.1045,-0.1053,-0.0991,-0.0968,-0.0945,-0.0913,-0.0922,-0.0892,-0.0896,-0.0895,-0.0889,-0.0833,-0.082,-0.085,-0.0753,-0.0783,-0.0776,-0.0763,-0.0754,-0.0746,-0.075,-0.0877,0,0,0,0,0,-0.1055,-0.1019,-0.1,-0.0948,-0.0936,-0.0927,-0.0906,-0.0908,-0.0884,-0.0874,-0.0858,-0.0834,-0.0799,-0.0776,-0.0743,-0.0678,-0.0672,-0.0649,-0.0641,-0.0635,-0.0628,-0.0594,-0.0583,-0.0695,-0.0695,-0.0695,0,0,-0.1025,-0.1008,-0.0985,-0.0941,-0.0923,-0.0887,-0.0918,-0.0878,-0.0851,-0.0867,-0.0815,-0.0803,-0.0776,-0.0717,-0.069,-0.0704,-0.0597,-0.0629,-0.0624,-0.0621,-0.0588,-0.0577,-0.0568,-0.0692,-0.0692,-0.0693,0,0,-0.0952,-0.0935,-0.089,-0.0872,-0.0846,-0.084,-0.083,-0.0806,-0.0799,-0.0747,-0.0759,-0.0727,-0.0667,-0.0647,-0.0629,-0.0551,-0.0561,-0.0541,-0.0501,-0.0467,-0.0458,-0.0451,-0.0423,-0.0413,-0.0534,-0.0534,-0.0534,0,-0.0917,-0.0863,-0.0865,-0.0824,-0.0805,-0.082,-0.0774,-0.0757,-0.072,-0.0706,-0.0724,-0.065,-0.0633,-0.0569,-0.055,-0.0535,-0.0523,-0.0543,-0.046,-0.0452,-0.0444,-0.0418,-0.0407,-0.0532,-0.0532,-0.0532,-0.0533,0,-0.0823,-0.0785,-0.0752,-0.0718,-0.0695,-0.0651,-0.0647,-0.0623,-0.0627,-0.062,-0.0568,-0.0548,-0.0512,-0.0497,-0.05,-0.0434,-0.0444,-0.046,-0.049,-0.0431,-0.0406,-0.0396,-0.0528,-0.0529,-0.053,-0.0531,0,0,-0.0725,-0.0695,-0.0683,-0.0668,-0.0641,-0.0612,-0.057,-0.0535,-0.0515,-0.049,-0.0455,-0.0405,-0.0421,-0.0401,-0.0402,-0.0373,-0.0313,-0.0393,-0.0392,-0.0378,-0.0239,-0.0226,-0.0214,-0.032,-0.0318,-0.0317,-0.0241,0,-0.065,-0.0577,-0.0578,-0.051,-0.0475,-0.0491,-0.0454,-0.0434,-0.0427,-0.0396,-0.0388,-0.0353,-0.0376,-0.0364,-0.0336,-0.0326,-0.0284,-0.0331,-0.0286,-0.0284,-0.0291,-0.0201,-0.0186,-0.0116,-0.0231,-0.023,-0.0228,0,-0.0551,-0.0525,-0.0453,-0.0433,-0.0418,-0.0385,-0.0355,-0.0326,-0.0303,-0.03,-0.0279,-0.0286,-0.0243,-0.0276,-0.0217,-0.0249,-0.0231,-0.0224,-0.0221,-0.0215,-0.0252,-0.0192,-0.0093,-0.0082,-0.0213,-0.0214,-0.0215,0,-0.0487,-0.0433,-0.0384,-0.0371,-0.0346,-0.0322,-0.0311,-0.0291,-0.027,-0.0244,-0.0231,-0.0199,-0.0182,-0.0157,-0.0155,-0.0179,-0.0096,-0.0129,-0.0092,-0.0092,-0.0072,-0.0073,0.0032,-0.0062,-0.0063,-0.0063,-0.0063,0,-0.0401,-0.0357,-0.0355,-0.0324,-0.0275,-0.0278,-0.0229,-0.022,-0.0202,-0.017,-0.0182,-0.0151,-0.0151,-0.012,-0.0119,-0.0071,-0.0063,-0.0059,-0.0058,-0.0057,-0.0057,-0.0044,-0.0048,-0.006,-0.0061,-0.0061,-0.0062,0,-0.032,-0.0317,-0.0264,-0.0246,-0.024,-0.0205,-0.0189,-0.016,-0.0155,-0.0115,-0.0105,-0.0097,-0.0061,-0.0058,-0.0016,-0.0015,0.0044,0.0038,0.0036,0.0036,0.0072,0.0069,0.0191,0.0206,0.0101,0.0102,0.0103,0,-0.0265,-0.0232,-0.021,-0.019,-0.0178,-0.0145,-0.0125,-0.0127,-0.0106,-0.0079,-0.0053,-0.0019,0.0008,0.0066,0.0076,0.0107,0.0103,0.0143,0.0108,0.0108,0.0105,0.0103,0.0106,0.0151,0.0152,0.0153,0.0154,0,-0.0168,-0.0169,-0.0139,-0.011,-0.0086,-0.0063,-0.0041,-0.0024,-0.0024,0.0001,0.0036,0.0057,0.0099,0.0133,0.0163,0.0175,0.0165,0.0164,0.0175,0.0177,0.0175,0.0177,0.0056,0.0162,0.0161,0.0161,0.016,0.016,-0.0097,-0.0069,-0.005,-0.0017,-0.0002,0.0018,0.0046,0.0054,0.0083,0.0117,0.0113,0.0152,0.0172,0.0212,0.0226,0.0257,0.0243,0.0258,0.0262,0.0266,0.027,0.0169,0.0262,0.0262,0.0262,0.0262,0.0261,0,-0.0,0.0011,0.004,0.007,0.0096,0.0081,0.0104,0.0127,0.0161,0.018,0.0206,0.0247,0.0279,0.0291,0.0322,0.0345,0.034,0.0353,0.0352,0.0355,0.028,0.0268,0.0356,0.0356,0.0356,0.0356,0.0356,0.0356,0.0054,0.0101,0.0103,0.0158,0.0168,0.0206,0.022,0.0239,0.0254,0.0299,0.0325,0.0332,0.0348,0.038,0.0409,0.0411,0.0424,0.0439,0.0439,0.037,0.036,0.0351,0.034,0.0441,0.0441,0.0511,0.0512,0.0513]},{"header":{"parameterUnit":"m.s-1","parameterCategory":1,"la1":30.2991,"la2":30.254,"lo1":-89.0895,"lo2":-89.0444,"dy":0.0017,"dx":0.0017,"nx":28,"ny":28,"refTime":"2024-05-23T21:00:00:Z","depth":0,"parameterNumber":3,"parameterNumberName":"V-component_of_WINDS"},"data":[0,0,0,0,0,0,0,0,0,0,0,0,0,0,0,0,0,0,0,0,0,0,0,0,0,0,0,0,0,0,0,0,0,0,0,0,0,0,0,0,0,0,0,0,0,0,0,0,0,0,0,0,0,0,0,0,0,0,5.2299,5.23,0,5.2311,5.2311,5.2311,5.2254,5.2253,5.2251,5.2249,5.2258,5.226,5.2262,0,0,0,0,0,0,0,0,0,0,0,0,0,5.2226,5.2228,5.2299,5.23,5.23,5.2311,5.2311,5.2311,5.2255,5.2253,5.2251,5.2249,5.2258,5.226,5.2262,0,0,0,0,0,0,0,0,0,0,0,0,0,5.225,5.2228,5.2299,5.2273,5.2271,5.2311,5.2311,5.2311,5.2255,5.2253,5.225,5.2248,5.2257,5.226,5.2262,5.2328,0,0,5.227,5.2271,0,0,0,0,0,0,0,0,5.2249,5.2253,5.2277,5.2275,5.2272,5.2279,5.2288,5.2317,5.2256,5.2261,5.2249,5.2247,5.2267,5.2269,5.2276,5.2328,5.2328,5.2271,5.2272,5.2273,5.2274,0,0,0,0,0,0,0,5.2247,5.2252,5.2304,5.2277,5.2274,5.226,5.226,5.2293,5.2277,5.226,5.2256,5.2258,5.2265,5.2274,5.2276,5.2329,5.2271,5.2273,5.2274,5.2276,5.2436,5.2438,0,0,0,0,0,0,5.2249,5.2251,5.2303,5.2304,5.2254,5.2263,5.2264,5.2279,5.2277,5.2274,5.226,5.2256,5.227,5.2273,5.2276,5.2353,5.2273,5.2276,5.2277,5.2433,5.2436,5.2439,0,0,0,0,0,0,5.2248,5.2254,5.2303,5.2276,5.2281,5.2267,5.2285,5.2281,5.2289,5.2277,5.2274,5.2272,5.2268,5.2272,5.2316,5.2352,5.2277,5.2279,5.243,5.2434,5.2438,5.2507,0,0,0,0,0,0,5.2246,5.2254,5.2279,5.2277,5.2283,5.2343,5.2287,5.2283,5.2294,5.2288,5.2287,5.2285,5.2267,5.2312,5.2318,5.2355,5.2281,5.2426,5.2432,5.2436,5.2501,5.2513,5.2523,0,0,0,0,0,5.2244,5.2298,5.2281,5.2288,5.2314,5.2345,5.2349,5.2328,5.2297,5.2322,5.2315,5.2285,5.2348,5.2317,5.2323,5.2361,5.2424,5.243,5.2436,5.2497,5.2511,5.2523,0,0,0,0,0,0,5.2303,5.2297,5.2278,5.2333,5.2341,5.2336,5.2366,5.2343,5.2358,5.2352,5.2324,5.2325,5.2373,5.2371,5.2337,5.2425,5.238,5.2388,5.2424,5.2437,5.2448,5.2447,5.2284,0,0,0,0,0,5.2323,5.2349,5.2342,5.2391,5.2396,5.2381,5.2394,5.2377,5.2383,5.2386,5.2381,5.2387,5.2408,5.2423,5.2441,5.2501,5.25,5.253,5.2541,5.255,5.2557,5.2589,5.2602,5.2459,5.2459,5.2459,0,0,5.2363,5.2363,5.2381,5.2403,5.2407,5.2435,5.2384,5.2415,5.2435,5.239,5.2431,5.2428,5.2433,5.2486,5.2508,5.2485,5.2596,5.2558,5.2565,5.2567,5.2596,5.261,5.2622,5.2463,5.2462,5.2461,0,0,5.2451,5.2454,5.2496,5.2501,5.2508,5.2497,5.2508,5.2507,5.2504,5.2545,5.2512,5.2535,5.2572,5.2577,5.2585,5.2677,5.265,5.2683,5.2739,5.2771,5.2782,5.2792,5.2825,5.2837,5.269,5.2691,5.2691,0,5.25,5.2542,5.252,5.2554,5.2565,5.2527,5.2569,5.2574,5.2587,5.2595,5.2569,5.2616,5.2616,5.267,5.2692,5.2699,5.271,5.2683,5.2783,5.2792,5.2801,5.2832,5.2845,5.2695,5.2694,5.2694,5.2693,0,5.2602,5.2631,5.2664,5.2679,5.2693,5.2731,5.2715,5.2732,5.2715,5.2707,5.275,5.2749,5.2768,5.2779,5.2762,5.283,5.2816,5.2787,5.2742,5.2819,5.2848,5.286,5.27,5.2699,5.2698,5.2697,0,0,5.2726,5.273,5.2742,5.2749,5.2754,5.2776,5.2812,5.2832,5.2847,5.2857,5.2887,5.292,5.2893,5.2902,5.2885,5.2913,5.2987,5.288,5.288,5.29,5.3062,5.3084,5.3099,5.2969,5.2971,5.2973,5.3062,0,5.2813,5.2876,5.2859,5.2922,5.2949,5.2914,5.2945,5.2952,5.2946,5.2968,5.296,5.2985,5.2948,5.2953,5.2979,5.2972,5.3019,5.2965,5.2996,5.2997,5.2996,5.3114,5.3137,5.3221,5.3073,5.3075,5.3077,0,5.2922,5.2938,5.3005,5.3007,5.3018,5.3047,5.3064,5.3085,5.3092,5.3085,5.3096,5.3074,5.3109,5.3064,5.3112,5.3077,5.3088,5.3087,5.309,5.3092,5.3042,5.3119,5.3247,5.326,5.3094,5.3093,5.3091,0,5.3007,5.3045,5.309,5.3097,5.31,5.3122,5.3124,5.3128,5.3142,5.3156,5.3164,5.3183,5.3192,5.3207,5.319,5.3159,5.3241,5.3194,5.3236,5.3237,5.3255,5.3254,5.3387,5.3263,5.3262,5.3262,5.3262,0,5.3106,5.3148,5.3129,5.3156,5.3202,5.3182,5.3228,5.3226,5.323,5.3257,5.3227,5.3252,5.3228,5.3251,5.3238,5.328,5.3285,5.328,5.3276,5.3283,5.3284,5.329,5.3284,5.3265,5.3265,5.3264,5.3263,0,5.3208,5.3197,5.3244,5.3244,5.3245,5.3279,5.3279,5.3304,5.3297,5.3331,5.3337,5.3325,5.3351,5.3336,5.3361,5.3352,5.3408,5.3396,5.3406,5.3403,5.3446,5.3442,5.3588,5.3606,5.347,5.3471,5.3472,0,5.3271,5.3303,5.3308,5.3324,5.3329,5.3355,5.3369,5.335,5.3366,5.3377,5.3401,5.3424,5.3442,5.3484,5.3477,5.3497,5.3485,5.3534,5.3487,5.3494,5.3486,5.3484,5.3488,5.3544,5.3545,5.3547,5.3548,0,5.3386,5.3379,5.3401,5.3422,5.344,5.3455,5.3467,5.3482,5.3463,5.3482,5.3508,5.3522,5.3549,5.3573,5.359,5.3591,5.3567,5.3563,5.3574,5.3581,5.3586,5.3584,5.3432,5.3559,5.3558,5.3557,5.3557,5.3556,5.3471,5.3498,5.3506,5.3532,5.354,5.3552,5.3576,5.3573,5.3595,5.3617,5.3604,5.3635,5.3642,5.3662,5.3667,5.3691,5.3671,5.3686,5.369,5.3694,5.3701,5.3582,5.3694,5.3693,5.3693,5.3693,5.3692,0,5.3584,5.3588,5.3612,5.3631,5.3652,5.3628,5.3641,5.3659,5.3688,5.3697,5.3715,5.3746,5.3769,5.3765,5.3786,5.3806,5.3795,5.3812,5.381,5.3811,5.3717,5.3706,5.382,5.382,5.382,5.382,5.382,5.382,5.3645,5.369,5.3685,5.3734,5.3737,5.3769,5.3778,5.379,5.3797,5.3833,5.3853,5.385,5.3854,5.3875,5.3895,5.3893,5.3902,5.3923,5.3917,5.383,5.3817,5.3805,5.3794,5.3925,5.3926,5.4009,5.401,5.401]}]]